Flight Track Log - Related Links

Times and Time Zones

All times are in EDT time to prevent confusion due to time zone crossing. See the N273SK flight status page for this flight to view local times or setup timezone preferences in your user account.

Time Position Orientation Groundspeed Altitude Reporting Facility
EDT Latitude Longitude Course Direction KTS MPH feet Rate Location/Type
Mon 06:38:19 AM 37.5500 -77.3000 45° Northeast 163 188 2,000  Level Potomac TRACON
Mon 06:39:19 AM 37.5833 -77.2667 38° Northeast 197 227 4,500 1,958 Climbing Potomac TRACON
Mon 06:39:54 AM 37.6072 -77.2408 41° Northeast 214 246 5,100 1,832 Climbing Washington Center
Mon 06:40:00 AM 37.7443 -77.0558 38° Northeast  Level FlightAware Approximate
Mon 06:40:54 AM 37.6581 -77.1789 44° Northeast 226 260 7,400  Level Washington Center
Mon 06:41:00 AM 37.8281 -76.9719 38° Northeast  Level FlightAware Approximate
Mon 06:41:54 AM 37.7131 -77.1092 45° Northeast 252 290 9,000  Level Washington Center
Mon 06:42:00 AM 37.9120 -76.8881 38° Northeast  Level FlightAware Approximate
Mon 06:42:54 AM 37.7725 -77.0367 44° Northeast 270 311 10,300  Level Washington Center
Mon 06:43:00 AM 37.9931 -76.8003 45° Northeast  Level FlightAware Approximate
Mon 06:43:54 AM 37.8358 -76.9592 44° Northeast 293 337 12,000  Level Washington Center
Mon 06:44:54 AM 37.9036 -76.8733 45° Northeast 317 365 13,900 1,750 Climbing Washington Center
Mon 06:45:54 AM 37.9753 -76.7878 43° Northeast 335 386 15,500 1,350 Climbing Washington Center
Mon 06:46:54 AM 38.0514 -76.6967 43° Northeast 347 399 16,600 750 Climbing Washington Center
Mon 06:47:54 AM 38.1272 -76.5947 47° Northeast 371 427 17,000 200 Climbing Washington Center
Mon 06:48:54 AM 38.2114 -76.4928 44° Northeast 394 453 17,000  Level Washington Center
Mon 06:49:54 AM 38.2978 -76.3908 43° Northeast 412 474 17,000  Level Washington Center
Mon 06:50:54 AM 38.3942 -76.3044 35° Northeast 412 474 17,000  Level Washington Center
Mon 06:51:54 AM 38.4886 -76.2150 37° Northeast 418 481 17,000  Level Washington Center
Mon 06:52:55 AM 38.5869 -76.1256 35° Northeast 426 490 17,000  Level Washington Center
Mon 06:53:54 AM 38.6853 -76.0358 35° Northeast 433 498 17,000  Level Washington Center
Mon 06:54:54 AM 38.7772 -75.9458 37° Northeast 428 493 17,000  Level Washington Center
Mon 06:55:54 AM 38.8714 -75.8608 35° Northeast 422 486 17,000  Level Washington Center
Mon 06:56:54 AM 38.9631 -75.7758 36° Northeast 416 479 17,000  Level Washington Center
Mon 06:57:54 AM 39.0550 -75.6878 37° Northeast 410 472 17,000  Level Washington Center
Mon 06:58:54 AM 39.1175 -75.5675 56° Northeast 394 453 17,000  Level Washington Center
Mon 06:59:54 AM 39.1633 -75.4336 66° East 400 460 17,000  Level Washington Center
Mon 07:00:54 AM 39.2108 -75.2969 66° East 400 460 17,000 -30 Level Washington Center
Mon 07:03:15 AM 39.3192 -74.9814 66° East 421 484 16,900 -30 Descending New York Center
Mon 07:04:17 AM 39.3656 -74.8444 66° East 416 479 16,900  Level New York Center
Mon 07:05:17 AM 39.4142 -74.7050 66° East 416 479 16,900  Level New York Center
Mon 07:06:15 AM 39.4622 -74.5731 65° Northeast 411 473 16,900  Level New York Center
Mon 07:07:15 AM 39.5356 -74.4344 56° Northeast 411 473 16,900  Level New York Center
Mon 07:08:15 AM 39.5933 -74.3217 56° Northeast 421 484 16,900  Level New York Center
Mon 07:09:15 AM 39.6736 -74.2122 46° Northeast 421 484 16,900 -545 Level New York Center
Mon 07:10:16 AM 39.7744 -74.1119 37° Northeast 409 471 15,800 -1,339 Descending New York Center
Mon 07:11:16 AM 39.8625 -74.0242 37° Northeast 409 471 14,200 -1,714 Descending New York Center
Mon 07:12:15 AM 39.9375 -73.9464 38° Northeast 372 428 12,400 -1,613 Descending New York Center
Mon 07:13:15 AM 40.0014 -73.8953 31° Northeast 316 364 11,000 -800 Descending New York Center
Mon 07:14:15 AM 40.0614 -73.8303 40° Northeast 268 308 10,800 -650 Descending New York Center
Mon 07:15:15 AM 40.0928 -73.7447 64° Northeast 253 291 9,700 -1,290 Descending New York Center
Mon 07:16:02 AM 40.1333 -73.7000 40° Northeast 245 282 8,500 -1,458 Descending New York TRACON
Mon 07:17:02 AM 40.2000 -73.6667 21° North 237 273 7,100 -1,474 Descending New York TRACON
Mon 07:17:56 AM 40.2167 -73.7333 288° West 249 287 5,700 -1,526 Descending New York TRACON
Mon 07:18:56 AM 40.2167 -73.8167 270° West 239 275 4,200 -1,238 Descending New York TRACON
Mon 07:20:02 AM 40.2333 -73.9000 285° West 249 287 3,100 -550 Descending New York TRACON
Mon 07:20:56 AM 40.2833 -73.9500 323° Northwest 221 254 3,100  Level New York TRACON
Mon 07:21:16 AM 40.2933 -73.9656 310° West 225 259 3,100 -75 Level New York Center
Mon 07:22:16 AM 40.3386 -73.9894 338° Northwest 214 246 3,000  Descending New York Center
Mon 07:23:17 AM 40.3942 -74.0111 343° North 191 220 3,100 68 Climbing New York Center
Mon 07:23:44 AM 40.4167 -74.0167 349° North 185 213 3,100 -65 Level New York TRACON
Mon 07:24:50 AM 40.4667 -74.0167 360° North 169 194 3,000  Descending New York TRACON
Mon 07:25:44 AM 40.5000 -73.9833 37° Northeast 151 174 3,100 -211 Climbing New York TRACON
Mon 07:26:44 AM 40.5333 -73.9500 37° Northeast 154 177 2,600 -789 Descending New York TRACON
Mon 07:27:38 AM 40.5667 -73.9333 21° North 145 167 1,600 -526 Descending New York TRACON
Mon 07:28:38 AM 40.6000 -73.9000 37° Northeast 139 160 1,600 -250 Level New York TRACON
Mon 07:29:38 AM 40.6333 -73.8833 21° North 132 152 1,100 -500 Descending New York TRACON

Login

Don't have an account? Register now (free) for customized features, flight alerts, and more!